Weather History for Milton, FL

Change the Weather History Date:

Monday, April 21, 2014

  Actual Average (KNSE) Record (KNSE)
Temperature  
Mean Temperature 63 °F -  
Max Temperature 79 °F 76 °F 87 °F (2011)
Min Temperature 48 °F 55 °F 46 °F (2013)
Degree Days  
Heating Degree Days 2    
Growing Degree Days 13 (Base 50)    
Moisture  
Dew Point 53 °F    
Average Humidity 71    
Maximum Humidity 90    
Minimum Humidity 47    
Precipitation  
Precipitation 0.00 in - - ()
Sea Level Pressure  
Sea Level Pressure 30.06 in    
Wind  
Wind Speed 2 mph (SSW)    
Max Wind Speed 10 mph    
Max Gust Speed -    
Visibility 8 miles    
Events      
Averages and records for this station are not official NWS values.
T = Trace of Precipitation, MM = Missing Value Source: NWS Daily Summary

Daily Weather History Graph

Daily Weather History Graph

Search for Another Location

Airport:

Trip Planner

Search our weather history database for the weather conditions in past years. The results will help you decide how hot, cold, wet, or windy it might be!

Date:

Astronomy

Apr. 21, 2014 Rise Set
Actual Time 6:14 AM CDT 7:19 PM CDT
Civil Twilight 5:49 AM CDT 7:45 PM CDT
Nautical Twilight 5:19 AM CDT 8:14 PM CDT
Astronomical Twilight 4:48 AM CDT 8:45 PM CDT
Moon 12:43 AM CDT (4/21) 11:45 AM CDT (4/21)
Length of Visible Light 13h 56m
Length of Day
13h 05m
Waning Gibbous, 57% of the Moon is Illuminated
Apr 21
Waning Gibbous
Apr 22
Last Quarter
Apr 29
New
May 6
First Quarter
May 14
Full

Hourly Weather History & Observations

Time (CDT) Temp. Dew Point Humidity Pressure Visibility Wind Dir Wind Speed Gust Speed Precip Events Conditions
12:56 AM 53.1 °F 48.9 °F 86% 30.10 in 4.0 mi Calm Calm - N/A   Clear
1:56 AM 51.1 °F 46.9 °F 86% 30.09 in 6.0 mi Calm Calm - N/A   Clear
2:56 AM 52.0 °F 48.9 °F 89% 30.09 in 4.0 mi Calm Calm - N/A   Clear
3:56 AM 48.9 °F 46.0 °F 90% 30.09 in 6.0 mi Calm Calm - N/A   Clear
4:56 AM 50.0 °F 46.0 °F 86% 30.09 in 5.0 mi Calm Calm - N/A   Clear
5:24 AM 50.0 °F 46.0 °F 86% 30.13 in 1.8 mi Calm Calm - N/A   Clear
5:34 AM 48.9 °F 45.0 °F 86% 30.13 in 3.0 mi Calm Calm - N/A   Clear
5:56 AM 48.9 °F 45.0 °F 86% 30.11 in 6.0 mi Calm Calm - N/A   Clear
6:56 AM 51.1 °F 48.0 °F 89% 30.12 in 6.0 mi Calm Calm - N/A   Clear
7:56 AM 61.0 °F 55.0 °F 81% 30.14 in 10.0 mi NNW 3.5 mph - N/A   Clear
8:56 AM 64.9 °F 55.9 °F 73% 30.14 in 10.0 mi Calm Calm - N/A   Partly Cloudy
9:56 AM 69.1 °F 55.0 °F 61% 30.14 in 10.0 mi Variable 3.5 mph - N/A   Scattered Clouds
10:56 AM 72.0 °F 55.0 °F 55% 30.11 in 10.0 mi Variable 5.8 mph - N/A   Scattered Clouds
11:56 AM 73.9 °F 55.0 °F 52% 30.09 in 10.0 mi ESE 9.2 mph - N/A   Scattered Clouds
12:56 PM 77.0 °F 55.9 °F 48% 30.06 in 10.0 mi Variable 3.5 mph - N/A   Scattered Clouds
1:56 PM 77.0 °F 55.0 °F 47% 30.04 in 10.0 mi WSW 4.6 mph - N/A   Scattered Clouds
2:56 PM 77.0 °F 57.0 °F 50% 30.01 in 10.0 mi South 6.9 mph - N/A   Scattered Clouds
3:56 PM 78.1 °F 57.9 °F 50% 30.00 in 10.0 mi South 8.1 mph - N/A   Mostly Cloudy
4:56 PM 77.0 °F 55.9 °F 48% 29.99 in 10.0 mi SSW 9.2 mph - N/A   Mostly Cloudy
5:56 PM 73.9 °F 55.9 °F 53% 29.98 in 10.0 mi South 10.4 mph - N/A   Mostly Cloudy
6:56 PM 71.1 °F 54.0 °F 55% 29.98 in 10.0 mi SSW 4.6 mph - N/A   Scattered Clouds
7:56 PM 68.0 °F 54.0 °F 61% 29.97 in 10.0 mi SSW 4.6 mph - N/A   Scattered Clouds
8:56 PM 66.0 °F 55.9 °F 70% 29.98 in 10.0 mi SSW 3.5 mph - N/A   Scattered Clouds
9:56 PM 64.0 °F 57.0 °F 78% 29.98 in 10.0 mi Calm Calm - N/A   Clear
10:56 PM 62.1 °F 57.0 °F 84% 29.98 in 10.0 mi Calm Calm - N/A   Clear
11:56 PM 61.0 °F 57.0 °F 87% 29.97 in 9.0 mi Calm Calm - N/A   Clear